Regional Weather Roundup
Issued by NWS Midland/Odessa, TX

Skip options and go directly to product.
Home | Oldest Version | Previous Version | Current Version | All | Graphics & Text | Save Text | Print | Product List | Glossary On

Skip product version selection by date and time.   
462
ASUS44 KMAF 301410
RWRMAF
MIDLAND AREA WEATHER ROUNDUP
NATIONAL WEATHER SERVICE MIDLAND TX
900 AM CDT MON MAY 30 2016

...IN SOUTHWEST TEXAS AND SOUTHEAST NEW MEXICO...

CITY           SKY/WX    TMP DP  RH WIND       PRES   REMARKS
ALPINE         CLOUDY    68  55  63 CALM      30.19S
ANDREWS        CLOUDY    60  58  93 NE7       30.12R
ARTESIA        CLOUDY    63  59  88 S6        30.11S
BIG SPRING     CLOUDY    61  58  90 CALM      30.13R
CARLSBAD       CLOUDY    64  55  72 CALM      30.09S
DRYDEN           N/A     75  71  87 SE10      30.04R
FORT STOCKTON  NOT AVBL
GUAD PASS      FOG       59  57  94 NE5       30.19R VSB 1
HOBBS          CLOUDY    59  59 100 NE6       30.14R
MARFA          CLOUDY    65  58  78 NE5       30.16F
MIDLAND AIRPK  CLOUDY    64  58  78 E9        30.12R
MIDLAND INTL   CLOUDY    63  57  81 E9        30.10R
ODESSA         CLOUDY    63  56  78 E12       30.11R
PECOS          CLOUDY    65  56  73 N5        30.07S
PRESIDIO       FAIR      77  58  50 CALM      30.03S
SEMINOLE       CLOUDY    61  55  82 NE3       30.14R
SNYDER           N/A     60  59  94 CALM      30.11R
WINK           NOT AVBL
$$
...OTHER STATIONS IN TEXAS...

CITY           SKY/WX    TMP DP  RH WIND       PRES   REMARKS
ABILENE        SUNNY     68  63  84 S13       30.06R
AMARILLO       SUNNY     60  53  77 W9        30.11F
AUSTIN         TSTM      67  66  97 SW3       30.10R FOG
BROWNSVILLE    MOSUNNY   83  76  79 E9        30.00R
CORPUS CHRISTI CLOUDY    82  75  79 SE5       30.03R
DALLAS FTW     CLOUDY    71  65  81 NE10      30.02S
DEL RIO        CLOUDY    77  72  84 E13G21    30.02R
EL PASO        MOSUNNY   79  40  24 N3        30.06R
HOUSTON INT    CLOUDY    77  73  87 NW3       30.06S
LUBBOCK        MOSUNNY   62  55  77 N3        30.12R
SAN ANGELO     PTSUNNY   69  66  90 S5        30.07R
SAN ANTONIO    CLOUDY    66  63  90 N7        30.09F
WACO           CLOUDY    74  58  57 N16G22    30.00R
WICHITA FALLS  NOT AVBL
$$
...OTHER LOCATIONS IN NEW MEXICO...

CITY           SKY/WX    TMP DP  RH WIND       PRES   REMARKS
ALAMAGORDO     SUNNY     68  37  32 CALM      30.10R
ALBUQUERQUE    PTSUNNY   61  44  53 NW5       30.14R
CANNON AFB     CLOUDY    59  55  87 SW5       30.15R
CLOVIS         CLOUDY    61  50  67 SW10      30.14S
HOLLOMAN AFB   SUNNY     74  39  28 S7        30.07R
ROSWELL        CLOUDY    63  52  67 SE6       30.11S
RUIDOSO          N/A     64  34  32 S6        30.25R
SANTA FE       SUNNY     57  43  59 N5        30.19R
TRUTH OR CONSE MOSUNNY   69  32  25 W5        30.11R
TUCUMCARI      CLOUDY    57  53  86 SW5       30.13S
$$

USA.gov is the U.S. government's official web portal to all federal, state and local government web resources and services.